Weather History for Athens, OH

Change the Weather History Date:

Tuesday, November 5, 2013

  Actual Average (KPKB) Record (KPKB)
Temperature  
Mean Temperature 49 °F 49 °F  
Max Temperature 60 °F 60 °F 83 °F (1948)
Min Temperature 38 °F 39 °F 12 °F (1991)
Degree Days  
Heating Degree Days 16 16  
Month to date heating degree days 77  
Since 1 July heating degree days 471  
Cooling Degree Days 0 0  
Month to date cooling degree days 0  
Year to date cooling degree days 953  
Moisture  
Dew Point 35 °F    
Average Humidity 55    
Maximum Humidity 89    
Minimum Humidity 39    
Precipitation  
Precipitation 0.00 in 0.11 in 0.74 in (2003)
Month to date precipitation 0.55  
Year to date precipitation 35.28  
Sea Level Pressure  
Sea Level Pressure 30.38 in    
Wind  
Wind Speed 1 mph (SSE)    
Max Wind Speed 6 mph    
Max Gust Speed -    
Visibility 10 miles    
Events      
T = Trace of Precipitation, MM = Missing Value Source: NWS Daily Summary

Daily Weather History Graph

Daily Weather History Graph

Search for Another Location

Airport:

Trip Planner

Search our weather history database for the weather conditions in past years. The results will help you decide how hot, cold, wet, or windy it might be!

Date:

Astronomy

Nov. 05, 2013 Rise Set
Actual Time 7:01 AM EST 5:23 PM EST
Civil Twilight 6:33 AM EST 5:51 PM EST
Nautical Twilight 6:01 AM EST 6:23 PM EST
Astronomical Twilight 5:30 AM EST 6:54 PM EST
Moon 9:14 AM EST (11/5) 7:24 PM EST (11/5)
Length of Visible Light 11h 17m
Length of Day
10h 21m
Waxing Crescent, 6% of the Moon is Illuminated
Nov 5
Waxing Crescent
Nov 10
First Quarter
Nov 17
Full
Nov 25
Last Quarter
Dec 2
New

Hourly Weather History & Observations

Time (EST) Temp. Windchill Dew Point Humidity Pressure Visibility Wind Dir Wind Speed Gust Speed Precip Events Conditions
12:15 AM 50.0 °F - 33.6 °F 53% 30.39 in 10.0 mi SSE 3.5 mph - N/A   Clear
12:35 AM 49.1 °F - 34.0 °F 56% 30.39 in 10.0 mi Calm Calm - N/A   Clear
12:55 AM 49.1 °F - 34.0 °F 56% 30.39 in 10.0 mi Calm Calm - N/A   Clear
1:15 AM 49.5 °F - 33.1 °F 53% 30.38 in 10.0 mi SE 3.5 mph - N/A   Clear
1:35 AM 49.3 °F - 33.1 °F 54% 30.40 in 10.0 mi Calm Calm - N/A   Clear
1:55 AM 48.9 °F - 33.1 °F 54% 30.40 in 10.0 mi South 3.5 mph - N/A   Clear
2:15 AM 49.1 °F - 33.1 °F 54% 30.41 in 10.0 mi Calm Calm - N/A   Clear
2:35 AM 48.9 °F - 32.4 °F 53% 30.41 in 10.0 mi Calm Calm - N/A   Clear
2:55 AM 48.4 °F - 32.4 °F 54% 30.40 in 10.0 mi Calm Calm - N/A   Clear
3:15 AM 48.2 °F - 32.7 °F 55% 30.41 in 10.0 mi Calm Calm - N/A   Clear
3:35 AM 47.8 °F - 32.7 °F 56% 30.40 in 10.0 mi Calm Calm - N/A   Clear
3:55 AM 46.9 °F - 33.6 °F 60% 30.41 in 10.0 mi Calm Calm - N/A   Clear
4:15 AM 48.2 °F - 32.2 °F 54% 30.42 in 10.0 mi Calm Calm - N/A   Clear
4:35 AM 47.7 °F - 32.2 °F 55% 30.42 in 10.0 mi Calm Calm - N/A   Clear
4:55 AM 47.3 °F - 32.4 °F 56% 30.42 in 10.0 mi Calm Calm - N/A   Clear
5:15 AM 47.5 °F - 32.0 °F 55% 30.43 in 10.0 mi Calm Calm - N/A   Clear
5:35 AM 46.4 °F - 32.4 °F 58% 30.43 in 10.0 mi Calm Calm - N/A   Clear
5:55 AM 46.4 °F - 32.0 °F 57% 30.43 in 10.0 mi Calm Calm - N/A   Clear
6:15 AM 46.6 °F - 32.0 °F 57% 30.43 in 10.0 mi Calm Calm - N/A   Clear
6:35 AM 45.9 °F - 32.2 °F 59% 30.45 in 10.0 mi Calm Calm - N/A   Clear
6:55 AM 45.5 °F - 32.0 °F 59% 30.44 in 10.0 mi Calm Calm - N/A   Clear
7:15 AM 45.5 °F - 32.0 °F 59% 30.44 in 10.0 mi Calm Calm - N/A   Clear
7:35 AM 45.7 °F - 32.0 °F 59% 30.44 in 10.0 mi Calm Calm - N/A   Clear
7:55 AM 46.4 °F 45.2 °F 32.0 °F 57% 30.43 in 10.0 mi ESE 3.5 mph - N/A   Clear
8:15 AM 46.9 °F - 32.0 °F 56% 30.45 in 10.0 mi Calm Calm - N/A   Clear
8:35 AM 47.3 °F - 32.0 °F 55% 30.45 in 10.0 mi Calm Calm - N/A   Clear
8:55 AM 48.2 °F - 32.0 °F 54% 30.45 in 10.0 mi Calm Calm - N/A   Clear
9:15 AM 49.1 °F - 32.4 °F 53% 30.44 in 10.0 mi Calm Calm - N/A   Clear
9:35 AM 50.2 °F - 32.4 °F 50% 30.45 in 10.0 mi SSW 4.6 mph - N/A   Clear
9:55 AM 50.9 °F - 33.1 °F 51% 30.45 in 10.0 mi South 4.6 mph - N/A   Clear
10:15 AM 52.0 °F - 33.6 °F 50% 30.45 in 10.0 mi SSW 4.6 mph - N/A   Clear
10:35 AM 52.5 °F - 34.0 °F 49% 30.46 in 10.0 mi South 5.8 mph - N/A   Clear
10:55 AM 54.0 °F - 34.5 °F 48% 30.45 in 10.0 mi SE 3.5 mph - N/A   Clear
11:15 AM 54.5 °F - 34.2 °F 46% 30.45 in 10.0 mi Calm Calm - N/A   Clear
11:35 AM 55.8 °F - 34.5 °F 45% 30.44 in 10.0 mi Calm Calm - N/A   Clear
11:55 AM 56.3 °F - 34.9 °F 45% 30.42 in 10.0 mi Calm Calm - N/A   Clear
12:15 PM 56.7 °F - 35.2 °F 45% 30.42 in 10.0 mi Calm Calm - N/A   Clear
12:35 PM 56.7 °F - 35.1 °F 44% 30.42 in 10.0 mi Calm Calm - N/A   Clear
12:55 PM 57.2 °F - 36.3 °F 46% 30.40 in 10.0 mi Calm Calm - N/A   Clear
1:15 PM 58.5 °F - 36.5 °F 44% 30.39 in 10.0 mi Calm Calm - N/A   Clear
1:35 PM 58.8 °F - 36.9 °F 44% 30.39 in 10.0 mi Calm Calm - N/A   Clear
1:55 PM 59.9 °F - 37.8 °F 44% 30.39 in 10.0 mi Calm Calm - N/A   Clear
2:15 PM 59.2 °F - 37.0 °F 44% 30.38 in 10.0 mi Calm Calm - N/A   Clear
2:35 PM 59.2 °F - 36.0 °F 42% 30.37 in 10.0 mi Calm Calm - N/A   Clear
2:55 PM 60.1 °F - 35.4 °F 40% 30.36 in 10.0 mi Calm Calm - N/A   Clear
3:15 PM 59.9 °F - 35.6 °F 40% 30.37 in 10.0 mi SE 3.5 mph - N/A   Clear
3:35 PM 59.7 °F - 35.1 °F 40% 30.36 in 10.0 mi SE 3.5 mph - N/A   Clear
3:55 PM 60.1 °F - 34.9 °F 39% 30.35 in 10.0 mi Calm Calm - N/A   Clear
4:15 PM 58.8 °F - 35.2 °F 41% 30.35 in 10.0 mi Calm Calm - N/A   Clear
4:35 PM 58.5 °F - 35.2 °F 42% 30.35 in 10.0 mi Calm Calm - N/A   Clear
4:55 PM 58.3 °F - 35.8 °F 43% 30.36 in 10.0 mi Calm Calm - N/A   Clear
5:15 PM 57.0 °F - 36.9 °F 47% 30.34 in 10.0 mi Calm Calm - N/A   Clear
5:35 PM 53.8 °F - 38.8 °F 57% 30.34 in 10.0 mi Calm Calm - N/A   Clear
5:55 PM 50.9 °F - 40.3 °F 67% 30.34 in 10.0 mi ENE 3.5 mph - N/A   Clear
6:15 PM 50.0 °F - 39.2 °F 66% 30.34 in 10.0 mi Calm Calm - N/A   Clear
6:35 PM 48.9 °F - 39.4 °F 70% 30.33 in 10.0 mi Calm Calm - N/A   Clear
6:55 PM 49.1 °F - 39.7 °F 70% 30.33 in 10.0 mi Calm Calm - N/A   Clear
7:15 PM 49.5 °F - 39.2 °F 68% 30.33 in 10.0 mi Calm Calm - N/A   Clear
7:35 PM 48.4 °F - 39.9 °F 73% 30.32 in 10.0 mi Calm Calm - N/A   Clear
7:55 PM 48.7 °F - 40.1 °F 72% 30.32 in 10.0 mi Calm Calm - N/A   Clear
8:15 PM 47.7 °F - 40.1 °F 75% 30.32 in 10.0 mi Calm Calm - N/A   Clear
8:35 PM 52.5 °F - 35.4 °F 52% 30.32 in 10.0 mi ESE 3.5 mph - N/A   Clear
8:55 PM 53.8 °F - 33.1 °F 45% 30.31 in 10.0 mi SE 3.5 mph - N/A   Clear
9:15 PM 53.2 °F - 32.0 °F 44% 30.31 in 10.0 mi SE 3.5 mph - N/A   Clear
9:35 PM 51.8 °F - 31.8 °F 47% 30.31 in 10.0 mi SSE 3.5 mph - N/A   Clear
9:55 PM 48.9 °F - 32.7 °F 54% 30.32 in 10.0 mi Calm Calm - N/A   Clear
10:15 PM 46.0 °F - 34.2 °F 63% 30.31 in 10.0 mi Calm Calm - N/A   Clear
10:35 PM 42.1 °F - 35.8 °F 78% 30.31 in 10.0 mi Calm Calm - N/A   Clear
10:55 PM 41.4 °F - 35.2 °F 79% 30.31 in 10.0 mi Calm Calm - N/A   Clear
11:15 PM 38.8 °F - 34.9 °F 86% 30.30 in 10.0 mi Calm Calm - N/A   Clear
11:35 PM 39.2 °F - 35.6 °F 87% 30.30 in 10.0 mi Calm Calm - N/A   Clear
11:55 PM 38.5 °F - 35.6 °F 89% 30.29 in 10.0 mi Calm Calm - N/A   Clear